TimeCDT,TemperatureF,Dew PointF,Humidity,Sea Level PressureIn,VisibilityMPH,Wind Direction,Wind SpeedMPH,Gust SpeedMPH,PrecipitationIn,Events,Conditions,WindDirDegrees,DateUTC
12:15 AM,46.2,42.8,88,30.00,10.0,Calm,Calm,-,N/A,,Overcast,0,2013-10-17 05:15:00
12:35 AM,46.4,42.3,85,29.99,10.0,West,4.6,-,N/A,,Mostly Cloudy,270,2013-10-17 05:35:00
12:55 AM,45.3,42.3,89,29.99,10.0,Calm,Calm,-,N/A,,Scattered Clouds,0,2013-10-17 05:55:00
1:15 AM,45.5,42.8,90,29.99,10.0,Calm,Calm,-,N/A,,Mostly Cloudy,0,2013-10-17 06:15:00
1:35 AM,44.8,42.8,93,29.98,10.0,Calm,Calm,-,N/A,,Overcast,0,2013-10-17 06:35:00
1:55 AM,45.1,43.2,93,29.98,10.0,Calm,Calm,-,N/A,,Mostly Cloudy,0,2013-10-17 06:55:00
2:15 AM,45.5,43.7,93,29.98,10.0,West,4.6,-,N/A,,Overcast,260,2013-10-17 07:15:00
2:35 AM,45.7,43.5,92,29.97,10.0,Calm,Calm,-,N/A,,Overcast,0,2013-10-17 07:35:00
2:55 AM,45.5,43.7,93,29.97,10.0,Calm,Calm,-,N/A,,Overcast,0,2013-10-17 07:55:00
3:15 AM,45.7,43.7,93,29.95,10.0,Calm,Calm,-,N/A,,Overcast,0,2013-10-17 08:15:00
3:35 AM,45.7,44.1,94,29.96,10.0,West,3.5,-,N/A,,Light Drizzle,260,2013-10-17 08:35:00
3:55 AM,46.0,44.1,93,29.96,10.0,Calm,Calm,-,N/A,Rain,Light Rain,0,2013-10-17 08:55:00
4:15 AM,45.9,44.6,95,29.96,10.0,Calm,Calm,-,N/A,Rain,Light Rain,0,2013-10-17 09:15:00
4:35 AM,45.9,44.8,96,29.97,10.0,West,3.5,-,N/A,Rain,Light Rain,260,2013-10-17 09:35:00
4:55 AM,45.9,44.6,95,29.96,10.0,Calm,Calm,-,N/A,Rain,Light Rain,0,2013-10-17 09:55:00
5:15 AM,46.0,44.8,95,29.97,10.0,Calm,Calm,-,N/A,Rain,Light Rain,0,2013-10-17 10:15:00
5:35 AM,45.9,45.0,97,29.97,10.0,SW,3.5,-,N/A,,Overcast,230,2013-10-17 10:35:00
5:55 AM,45.7,44.6,96,29.97,10.0,Calm,Calm,-,N/A,,Overcast,0,2013-10-17 10:55:00
6:15 AM,45.5,44.6,97,29.96,10.0,Calm,Calm,-,N/A,,Overcast,0,2013-10-17 11:15:00
6:35 AM,45.7,44.6,96,29.96,10.0,SW,3.5,-,N/A,,Overcast,230,2013-10-17 11:35:00
6:55 AM,45.7,44.8,97,29.97,10.0,SW,4.6,-,N/A,,Overcast,230,2013-10-17 11:55:00
7:15 AM,45.9,44.6,95,29.97,10.0,SW,4.6,-,N/A,,Overcast,230,2013-10-17 12:15:00
7:35 AM,45.9,44.6,95,29.97,10.0,WSW,4.6,-,N/A,,Overcast,250,2013-10-17 12:35:00
7:55 AM,46.0,44.6,95,29.97,10.0,SW,5.8,-,N/A,,Overcast,230,2013-10-17 12:55:00
8:15 AM,46.2,45.0,95,29.98,10.0,WSW,5.8,-,N/A,,Overcast,240,2013-10-17 13:15:00
8:35 AM,46.4,45.5,97,29.98,7.0,WSW,5.8,-,N/A,,Overcast,240,2013-10-17 13:35:00
8:55 AM,46.9,45.9,96,29.98,7.0,WSW,8.1,-,N/A,,Overcast,250,2013-10-17 13:55:00
9:15 AM,47.5,46.2,95,29.98,10.0,WSW,6.9,-,N/A,,Overcast,240,2013-10-17 14:15:00
9:35 AM,48.2,46.4,93,29.98,10.0,WSW,9.2,-,N/A,,Overcast,250,2013-10-17 14:35:00
9:55 AM,48.4,46.6,93,29.99,10.0,East,9.2,-,N/A,,Overcast,100,2013-10-17 14:55:00
10:15 AM,48.4,45.9,91,29.99,10.0,WSW,9.2,-,N/A,,Overcast,250,2013-10-17 15:15:00
10:35 AM,48.2,45.7,91,30.00,10.0,ESE,8.1,-,N/A,,Overcast,110,2013-10-17 15:35:00
10:55 AM,48.2,45.9,92,30.00,10.0,West,5.8,-,N/A,,Overcast,280,2013-10-17 15:55:00
11:15 AM,48.6,46.0,91,30.00,10.0,ESE,6.9,-,N/A,,Overcast,110,2013-10-17 16:15:00
11:35 AM,49.5,46.4,89,29.98,10.0,SSW,8.1,-,N/A,,Overcast,210,2013-10-17 16:35:00
11:55 AM,51.4,46.4,83,29.97,10.0,WSW,6.9,-,N/A,,Scattered Clouds,240,2013-10-17 16:55:00
12:15 PM,52.9,45.7,77,29.97,10.0,SE,8.1,-,N/A,,Clear,140,2013-10-17 17:15:00
12:35 PM,53.8,45.1,73,29.97,10.0,WSW,11.5,-,N/A,,Scattered Clouds,250,2013-10-17 17:35:00
12:55 PM,55.4,45.3,69,29.96,10.0,SSW,10.4,-,N/A,,Scattered Clouds,210,2013-10-17 17:55:00
1:15 PM,55.4,43.7,65,29.95,10.0,West,9.2,-,N/A,,Scattered Clouds,260,2013-10-17 18:15:00
1:35 PM,57.7,43.2,58,29.94,10.0,WSW,10.4,17.3,N/A,,Scattered Clouds,250,2013-10-17 18:35:00
1:55 PM,58.5,41.9,54,29.94,10.0,West,12.7,-,N/A,,Scattered Clouds,270,2013-10-17 18:55:00
2:15 PM,58.3,41.5,54,29.93,10.0,NNE,13.8,-,N/A,,Scattered Clouds,30,2013-10-17 19:15:00
2:35 PM,57.9,40.5,52,29.93,10.0,West,10.4,-,N/A,,Scattered Clouds,280,2013-10-17 19:35:00
2:55 PM,58.8,39.9,50,29.93,10.0,WSW,9.2,-,N/A,,Mostly Cloudy,250,2013-10-17 19:55:00
3:15 PM,60.4,40.5,48,29.93,10.0,West,11.5,17.3,N/A,,Mostly Cloudy,280,2013-10-17 20:15:00
3:35 PM,61.0,40.5,47,29.93,10.0,WSW,11.5,20.7,N/A,,Mostly Cloudy,240,2013-10-17 20:35:00
3:55 PM,58.5,40.5,51,29.92,10.0,WSW,6.9,-,N/A,,Scattered Clouds,250,2013-10-17 20:55:00
4:15 PM,60.6,39.9,46,29.91,10.0,ESE,13.8,-,N/A,,Scattered Clouds,110,2013-10-17 21:15:00
4:35 PM,61.2,38.7,43,29.91,10.0,SW,12.7,-,N/A,,Scattered Clouds,220,2013-10-17 21:35:00
4:55 PM,60.4,37.8,43,29.91,10.0,East,6.9,-,N/A,,Scattered Clouds,100,2013-10-17 21:55:00
5:15 PM,60.4,37.6,43,29.91,10.0,SE,11.5,-,N/A,,Scattered Clouds,130,2013-10-17 22:15:00
5:35 PM,59.0,37.9,46,29.92,10.0,ESE,6.9,-,N/A,,Clear,110,2013-10-17 22:35:00
5:55 PM,56.8,38.3,50,29.92,10.0,SE,4.6,-,N/A,,Clear,130,2013-10-17 22:55:00
6:15 PM,53.4,39.4,59,29.92,10.0,South,4.6,-,N/A,,Scattered Clouds,190,2013-10-17 23:15:00
6:35 PM,50.7,39.7,66,29.93,10.0,SSW,5.8,-,N/A,,Scattered Clouds,200,2013-10-17 23:35:00
6:55 PM,49.8,40.1,69,29.93,10.0,South,4.6,-,N/A,,Scattered Clouds,180,2013-10-17 23:55:00
7:15 PM,49.3,40.1,71,29.94,10.0,SSW,4.6,-,N/A,,Scattered Clouds,200,2013-10-18 00:15:00
7:35 PM,48.2,40.3,74,29.94,10.0,South,5.8,-,N/A,,Scattered Clouds,180,2013-10-18 00:35:00
7:55 PM,46.6,40.1,78,29.94,10.0,South,4.6,-,N/A,,Scattered Clouds,190,2013-10-18 00:55:00
8:15 PM,46.2,39.6,78,29.95,10.0,SSW,4.6,-,N/A,,Clear,200,2013-10-18 01:15:00
8:35 PM,45.1,39.4,80,29.95,10.0,South,4.6,-,N/A,,Clear,190,2013-10-18 01:35:00
8:55 PM,44.4,39.2,82,29.95,10.0,SSW,5.8,-,N/A,,Clear,210,2013-10-18 01:55:00
9:15 PM,44.1,39.2,83,29.95,10.0,SSW,5.8,-,N/A,,Clear,210,2013-10-18 02:15:00
9:35 PM,44.6,39.2,81,29.96,10.0,South,4.6,-,N/A,,Clear,190,2013-10-18 02:35:00
9:55 PM,43.5,39.2,85,29.95,10.0,South,5.8,-,N/A,,Clear,190,2013-10-18 02:55:00
10:15 PM,43.7,39.2,84,29.95,10.0,South,5.8,-,N/A,,Clear,190,2013-10-18 03:15:00
10:35 PM,43.7,39.2,84,29.95,10.0,South,5.8,-,N/A,,Clear,190,2013-10-18 03:35:00
10:55 PM,42.8,38.7,85,29.95,10.0,South,4.6,-,N/A,,Clear,190,2013-10-18 03:55:00
11:15 PM,43.0,39.2,86,29.95,10.0,SSE,4.6,-,N/A,,Clear,160,2013-10-18 04:15:00
11:35 PM,42.8,39.2,87,29.95,10.0,SSE,3.5,-,N/A,,Scattered Clouds,160,2013-10-18 04:35:00
11:55 PM,42.8,39.4,88,29.95,10.0,South,4.6,-,N/A,,Scattered Clouds,180,2013-10-18 04:55:00